星链-3661 (STARLINK-3661 )

导读 | 豆包AI

STARLINK-3661是美国SpaceX公司星链互联网星座中的卫星,于2022年3月19日由猎鹰9号火箭发射升空,属于星链Group 4-16批次。它运行在近地轨道,重约297kg,旨在为全球偏远地区提供高速低延迟宽带互联网服务,是SpaceX构建大规模卫星互联网组网的组成单元,助力星链实现全球覆盖的目标。

基本信息
目录编号:
52129
目录名称:
STARLINK-3661
国际标识:
2022-029AT
轨道中心:
EARTH
卫星名称:
星链-3661
卫星全名:
星链-3661 (STARLINK-3661 )
卫星状态:
在轨 (已飞行1503 天)
发射日期:
2022-03-19 UTC
国别 :
美国 (US)
星等 :
--
轨道信息
数据来源 国际轨道数据
星历时间: 2026-04-30T13:07:34+0800
11小时前
查看轨道信息
半长轴: 6917.877km
偏心率: 0.0001224
轨道倾角: 53.218°
近地点辐角 84.197°
升交点赤经 197.824°
平近点角 275.916°
近地点: 538.893km
远地点: 540.587km
周期: 95.437分钟
每日圈数: 15.088412
详细信息
固有亮度:
5
最大亮度:
2.5
卫星平台:
Starlink v1.5
覆盖范围:
全球
运营商:
太空探索技术公司
运营商所在国:
美国
制造商(研发单位):
太空探索技术公司
制造商所在国:
美国
使用方式:
暂无
卫星简介
星链(Starlink)计划是由太空探索技术公司(SpaceX)提出的一个巨型低轨卫星互联网星座项目,计划在2019年至2024年间在太空搭建由约1.2万颗卫星组成的“星链”网络,其中1584颗将部署在地球上空550千米处的近地轨道,并从2020年开始工作。该卫星仍在工作。
2D轨道图
3D轨道图
轨道高度分析图
轨道倾角分析图
轨道综合分析图
查看轨道综合分析图